Location: Gerlach
(40.6516°N, 119.3568°W)
Time: 19:43:40
(UTC-08:00)

SEEDS - Visible Passes

Search period start: 26 February 2024 00:00
Search period end: 07 March 2024 00:00
Orbit: 560 x 567 km, 97.7° (Epoch: 26 February)

Date Brightness Start Highest point End Pass type
(mag) Time Alt. Az. Time Alt. Az. Time Alt. Az.
27 Feb ? 04:54:33 10° NNW 04:54:34 10° NNW 04:54:34 10° NNW visible
28 Feb ? 04:54:18 10° NNW 04:54:30 11° NNW 04:54:30 11° NNW visible
29 Feb ? 04:54:03 10° NNW 04:54:25 12° NNW 04:54:25 12° NNW visible
01 Mar ? 03:18:17 10° NNE 03:18:19 10° NNE 03:18:19 10° NNE visible
01 Mar ? 04:53:46 10° NNW 04:54:19 12° NNW 04:54:19 12° NNW visible
02 Mar ? 03:18:00 10° NNE 03:18:12 11° NE 03:18:12 11° NE visible
02 Mar ? 04:53:28 10° NNW 04:54:10 13° NNW 04:54:10 13° NNW visible
03 Mar ? 03:17:42 10° NNE 03:18:02 12° NE 03:18:02 12° NE visible
03 Mar ? 04:53:08 10° NNW 04:54:02 14° NNW 04:54:02 14° NNW visible
04 Mar ? 03:17:22 10° NNE 03:17:52 13° NE 03:17:52 13° NE visible
04 Mar ? 04:52:47 10° NNW 04:53:51 15° NNW 04:53:51 15° NNW visible
05 Mar ? 03:17:01 10° NE 03:17:40 14° NE 03:17:40 14° NE visible
05 Mar ? 04:52:24 10° NNW 04:53:39 16° NW 04:53:39 16° NW visible
06 Mar ? 03:16:39 10° NE 03:17:28 15° NE 03:17:28 15° NE visible
06 Mar ? 04:52:00 10° NNW 04:53:26 16° NW 04:53:26 16° NW visible
